Year,Month,Day,Hour,Minute,Value (Times are PST for insolation in W/m^2)
2020,05,30,00,00,0.00
2020,05,30,00,01,0.00
2020,05,30,00,02,0.00
2020,05,30,00,03,0.00
2020,05,30,00,04,0.00
2020,05,30,00,05,0.00
2020,05,30,00,06,0.00
2020,05,30,00,07,0.00
2020,05,30,00,08,0.00
2020,05,30,00,09,0.00
2020,05,30,00,10,0.00
2020,05,30,00,11,0.00
2020,05,30,00,12,0.00
2020,05,30,00,13,0.00
2020,05,30,00,14,0.00
2020,05,30,00,15,0.00
2020,05,30,00,16,0.00
2020,05,30,00,17,0.00
2020,05,30,00,18,0.00
2020,05,30,00,19,0.00
2020,05,30,00,20,0.00
2020,05,30,00,21,0.00
2020,05,30,00,22,0.00
2020,05,30,00,23,0.00
2020,05,30,00,24,0.00
2020,05,30,00,25,0.00
2020,05,30,00,26,0.00
2020,05,30,00,27,0.00
2020,05,30,00,28,0.00
2020,05,30,00,29,0.00
2020,05,30,00,30,0.00
2020,05,30,00,31,0.00
2020,05,30,00,32,0.00
2020,05,30,00,33,0.00
2020,05,30,00,34,0.00
2020,05,30,00,35,0.00
2020,05,30,00,36,0.00
2020,05,30,00,37,0.00
2020,05,30,00,38,0.00
2020,05,30,00,39,0.00
2020,05,30,00,40,0.00
2020,05,30,00,41,0.00
2020,05,30,00,42,0.00
2020,05,30,00,43,0.00
2020,05,30,00,44,0.00
2020,05,30,00,45,0.00
2020,05,30,00,46,0.00
2020,05,30,00,47,0.00
2020,05,30,00,48,0.00
2020,05,30,00,49,0.00
2020,05,30,00,50,0.00
2020,05,30,00,51,0.00
2020,05,30,00,52,0.00
2020,05,30,00,53,0.00
2020,05,30,00,54,0.00
2020,05,30,00,55,0.00
2020,05,30,00,56,0.00
2020,05,30,00,57,0.00
2020,05,30,00,58,0.00
2020,05,30,00,59,0.00
2020,05,30,01,00,0.00
2020,05,30,01,01,0.00
2020,05,30,01,02,0.00
2020,05,30,01,03,0.00
2020,05,30,01,04,0.00
2020,05,30,01,05,0.00
2020,05,30,01,06,0.00
2020,05,30,01,07,0.00
2020,05,30,01,08,0.00
2020,05,30,01,09,0.00
2020,05,30,01,10,0.00
2020,05,30,01,11,0.00
2020,05,30,01,12,0.00
2020,05,30,01,13,0.00
2020,05,30,01,14,0.00
2020,05,30,01,15,0.00
2020,05,30,01,16,0.00
2020,05,30,01,17,0.00
2020,05,30,01,18,0.00
2020,05,30,01,19,0.00
2020,05,30,01,20,0.00
2020,05,30,01,21,0.00
2020,05,30,01,22,0.00
2020,05,30,01,23,0.00
2020,05,30,01,24,0.00
2020,05,30,01,25,0.00
2020,05,30,01,26,0.00
2020,05,30,01,27,0.00
2020,05,30,01,28,0.00
2020,05,30,01,29,0.00
2020,05,30,01,30,0.00
2020,05,30,01,31,0.00
2020,05,30,01,32,0.00
2020,05,30,01,33,0.00
2020,05,30,01,34,0.00
2020,05,30,01,35,0.00
2020,05,30,01,36,0.00
2020,05,30,01,37,0.00
2020,05,30,01,38,0.00
2020,05,30,01,39,0.00
2020,05,30,01,40,0.00
2020,05,30,01,41,0.00
2020,05,30,01,42,0.00
2020,05,30,01,43,0.00
2020,05,30,01,44,0.00
2020,05,30,01,45,0.00
2020,05,30,01,46,0.00
2020,05,30,01,47,0.00
2020,05,30,01,48,0.00
2020,05,30,01,49,0.00
2020,05,30,01,50,0.00
2020,05,30,01,51,0.00
2020,05,30,01,52,0.00
2020,05,30,01,53,0.00
2020,05,30,01,54,0.00
2020,05,30,01,55,0.00
2020,05,30,01,56,0.00
2020,05,30,01,57,0.00
2020,05,30,01,58,0.00
2020,05,30,01,59,0.00
2020,05,30,02,00,0.00
2020,05,30,02,01,0.00
2020,05,30,02,02,0.00
2020,05,30,02,03,0.00
2020,05,30,02,04,0.00
2020,05,30,02,05,0.00
2020,05,30,02,06,0.00
2020,05,30,02,07,0.00
2020,05,30,02,08,0.00
2020,05,30,02,09,0.00
2020,05,30,02,10,0.00
2020,05,30,02,11,0.00
2020,05,30,02,12,0.00
2020,05,30,02,13,0.00
2020,05,30,02,14,0.00
2020,05,30,02,15,0.00
2020,05,30,02,16,0.00
2020,05,30,02,17,0.00
2020,05,30,02,18,0.00
2020,05,30,02,19,0.00
2020,05,30,02,20,0.00
2020,05,30,02,21,0.00
2020,05,30,02,22,0.00
2020,05,30,02,23,0.00
2020,05,30,02,24,0.00
2020,05,30,02,25,0.00
2020,05,30,02,26,0.00
2020,05,30,02,27,0.00
2020,05,30,02,28,0.00
2020,05,30,02,29,0.00
2020,05,30,02,30,0.00
2020,05,30,02,31,0.00
2020,05,30,02,32,0.00
2020,05,30,02,33,0.00
2020,05,30,02,34,0.00
2020,05,30,02,35,0.00
2020,05,30,02,36,0.00
2020,05,30,02,37,0.00
2020,05,30,02,38,0.00
2020,05,30,02,39,0.00
2020,05,30,02,40,0.00
2020,05,30,02,41,0.00
2020,05,30,02,42,0.00
2020,05,30,02,43,0.00
2020,05,30,02,44,0.00
2020,05,30,02,45,0.00
2020,05,30,02,46,0.00
2020,05,30,02,47,0.00
2020,05,30,02,48,0.00
2020,05,30,02,49,0.00
2020,05,30,02,50,0.00
2020,05,30,02,51,0.00
2020,05,30,02,52,0.00
2020,05,30,02,53,0.00
2020,05,30,02,54,0.00
2020,05,30,02,55,0.00
2020,05,30,02,56,0.00
2020,05,30,02,57,0.00
2020,05,30,02,58,0.00
2020,05,30,02,59,0.00
2020,05,30,03,00,0.00
2020,05,30,03,01,0.00
2020,05,30,03,02,0.00
2020,05,30,03,03,0.00
2020,05,30,03,04,0.00
2020,05,30,03,05,0.00
2020,05,30,03,06,0.00
2020,05,30,03,07,0.00
2020,05,30,03,08,0.00
2020,05,30,03,09,0.00
2020,05,30,03,10,0.00
2020,05,30,03,11,0.00
2020,05,30,03,12,0.00
2020,05,30,03,13,0.00
2020,05,30,03,14,0.00
2020,05,30,03,15,0.00
2020,05,30,03,16,0.00
2020,05,30,03,17,0.00
2020,05,30,03,18,0.00
2020,05,30,03,19,0.00
2020,05,30,03,20,0.00
2020,05,30,03,21,0.00
2020,05,30,03,22,0.00
2020,05,30,03,23,0.00
2020,05,30,03,24,0.00
2020,05,30,03,25,0.00
2020,05,30,03,26,0.00
2020,05,30,03,27,0.00
2020,05,30,03,28,0.00
2020,05,30,03,29,0.00
2020,05,30,03,30,0.00
2020,05,30,03,31,0.00
2020,05,30,03,32,0.00
2020,05,30,03,33,0.00
2020,05,30,03,34,0.00
2020,05,30,03,35,0.00
2020,05,30,03,36,0.00
2020,05,30,03,37,0.00
2020,05,30,03,38,0.00
2020,05,30,03,39,0.00
2020,05,30,03,40,0.00
2020,05,30,03,41,0.00
2020,05,30,03,42,0.00
2020,05,30,03,43,0.00
2020,05,30,03,44,0.00
2020,05,30,03,45,0.00
2020,05,30,03,46,0.00
2020,05,30,03,47,0.00
2020,05,30,03,48,0.00
2020,05,30,03,49,0.00
2020,05,30,03,50,0.00
2020,05,30,03,51,0.00
2020,05,30,03,52,0.00
2020,05,30,03,53,0.00
2020,05,30,03,54,0.00
2020,05,30,03,55,0.00
2020,05,30,03,56,0.00
2020,05,30,03,57,0.00
2020,05,30,03,58,0.00
2020,05,30,03,59,0.00
2020,05,30,04,00,0.00
2020,05,30,04,01,0.00
2020,05,30,04,02,0.00
2020,05,30,04,03,0.00
2020,05,30,04,04,0.00
2020,05,30,04,05,0.00
2020,05,30,04,06,0.00
2020,05,30,04,07,0.00
2020,05,30,04,08,0.00
2020,05,30,04,09,0.00
2020,05,30,04,10,0.00
2020,05,30,04,11,0.00
2020,05,30,04,12,0.00
2020,05,30,04,13,0.00
2020,05,30,04,14,0.00
2020,05,30,04,15,0.00
2020,05,30,04,16,0.00
2020,05,30,04,17,0.00
2020,05,30,04,18,0.00
2020,05,30,04,19,0.00
2020,05,30,04,20,0.00
2020,05,30,04,21,0.00
2020,05,30,04,22,0.00
2020,05,30,04,23,0.00
2020,05,30,04,24,0.00
2020,05,30,04,25,0.00
2020,05,30,04,26,0.00
2020,05,30,04,27,0.00
2020,05,30,04,28,0.00
2020,05,30,04,29,0.00
2020,05,30,04,30,0.00
2020,05,30,04,31,0.00
2020,05,30,04,32,0.00
2020,05,30,04,33,0.00
2020,05,30,04,34,0.00
2020,05,30,04,35,0.00
2020,05,30,04,36,0.00
2020,05,30,04,37,0.00
2020,05,30,04,38,0.00
2020,05,30,04,39,0.00
2020,05,30,04,40,0.00
2020,05,30,04,41,0.00
2020,05,30,04,42,0.00
2020,05,30,04,43,0.00
2020,05,30,04,44,0.00
2020,05,30,04,45,0.00
2020,05,30,04,46,0.00
2020,05,30,04,47,0.00
2020,05,30,04,48,0.00
2020,05,30,04,49,0.00
2020,05,30,04,50,0.00
2020,05,30,04,51,0.00
2020,05,30,04,52,0.00
2020,05,30,04,53,0.00
2020,05,30,04,54,0.00
2020,05,30,04,55,0.00
2020,05,30,04,56,0.00
2020,05,30,04,57,0.00
2020,05,30,04,58,0.00
2020,05,30,04,59,0.00
2020,05,30,05,00,0.00
2020,05,30,05,01,0.00
2020,05,30,05,02,0.00
2020,05,30,05,03,0.00
2020,05,30,05,04,0.00
2020,05,30,05,05,0.00
2020,05,30,05,06,0.00
2020,05,30,05,07,0.00
2020,05,30,05,08,0.00
2020,05,30,05,09,0.00
2020,05,30,05,10,0.00
2020,05,30,05,11,0.00
2020,05,30,05,12,0.00
2020,05,30,05,13,0.00
2020,05,30,05,14,0.00
2020,05,30,05,15,0.00
2020,05,30,05,16,0.00
2020,05,30,05,17,0.00
2020,05,30,05,18,0.00
2020,05,30,05,19,0.00
2020,05,30,05,20,0.00
2020,05,30,05,21,0.00
2020,05,30,05,22,3.30
2020,05,30,05,23,5.00
2020,05,30,05,24,5.00
2020,05,30,05,25,5.20
2020,05,30,05,26,7.00
2020,05,30,05,27,7.00
2020,05,30,05,28,7.00
2020,05,30,05,29,7.00
2020,05,30,05,30,7.00
2020,05,30,05,31,7.00
2020,05,30,05,32,7.00
2020,05,30,05,33,8.90
2020,05,30,05,34,9.00
2020,05,30,05,35,9.00
2020,05,30,05,36,9.00
2020,05,30,05,37,9.00
2020,05,30,05,38,10.10
2020,05,30,05,39,11.00
2020,05,30,05,40,11.00
2020,05,30,05,41,11.00
2020,05,30,05,42,12.00
2020,05,30,05,43,12.00
2020,05,30,05,44,12.00
2020,05,30,05,45,12.00
2020,05,30,05,46,12.00
2020,05,30,05,47,13.20
2020,05,30,05,48,14.00
2020,05,30,05,49,15.60
2020,05,30,05,50,16.00
2020,05,30,05,51,16.20
2020,05,30,05,52,18.20
2020,05,30,05,53,19.00
2020,05,30,05,54,20.00
2020,05,30,05,55,21.00
2020,05,30,05,56,22.20
2020,05,30,05,57,24.40
2020,05,30,05,58,25.00
2020,05,30,05,59,25.00
2020,05,30,06,00,25.20
2020,05,30,06,01,26.00
2020,05,30,06,02,25.60
2020,05,30,06,03,25.00
2020,05,30,06,04,25.00
2020,05,30,06,05,25.00
2020,05,30,06,06,25.80
2020,05,30,06,07,26.00
2020,05,30,06,08,28.00
2020,05,30,06,09,28.50
2020,05,30,06,10,30.90
2020,05,30,06,11,33.80
2020,05,30,06,12,37.20
2020,05,30,06,13,41.00
2020,05,30,06,14,44.90
2020,05,30,06,15,48.50
2020,05,30,06,16,53.00
2020,05,30,06,17,58.60
2020,05,30,06,18,62.80
2020,05,30,06,19,66.50
2020,05,30,06,20,69.40
2020,05,30,06,21,70.00
2020,05,30,06,22,70.00
2020,05,30,06,23,70.00
2020,05,30,06,24,69.10
2020,05,30,06,25,66.90
2020,05,30,06,26,64.40
2020,05,30,06,27,61.40
2020,05,30,06,28,59.20
2020,05,30,06,29,58.00
2020,05,30,06,30,56.70
2020,05,30,06,31,54.60
2020,05,30,06,32,53.20
2020,05,30,06,33,51.10
2020,05,30,06,34,48.70
2020,05,30,06,35,47.00
2020,05,30,06,36,47.00
2020,05,30,06,37,47.00
2020,05,30,06,38,48.10
2020,05,30,06,39,49.00
2020,05,30,06,40,50.50
2020,05,30,06,41,53.50
2020,05,30,06,42,56.10
2020,05,30,06,43,58.40
2020,05,30,06,44,60.60
2020,05,30,06,45,62.30
2020,05,30,06,46,63.00
2020,05,30,06,47,62.50
2020,05,30,06,48,62.00
2020,05,30,06,49,62.00
2020,05,30,06,50,62.00
2020,05,30,06,51,62.00
2020,05,30,06,52,62.00
2020,05,30,06,53,62.30
2020,05,30,06,54,63.00
2020,05,30,06,55,63.00
2020,05,30,06,56,64.30
2020,05,30,06,57,66.40
2020,05,30,06,58,67.00
2020,05,30,06,59,69.00
2020,05,30,07,00,70.30
2020,05,30,07,01,73.10
2020,05,30,07,02,76.40
2020,05,30,07,03,78.90
2020,05,30,07,04,82.70
2020,05,30,07,05,85.30
2020,05,30,07,06,86.00
2020,05,30,07,07,87.80
2020,05,30,07,08,88.20
2020,05,30,07,09,90.20
2020,05,30,07,10,91.60
2020,05,30,07,11,93.70
2020,05,30,07,12,96.00
2020,05,30,07,13,97.60
2020,05,30,07,14,98.00
2020,05,30,07,15,98.00
2020,05,30,07,16,99.80
2020,05,30,07,17,100.30
2020,05,30,07,18,102.50
2020,05,30,07,19,104.00
2020,05,30,07,20,104.50
2020,05,30,07,21,106.10
2020,05,30,07,22,107.00
2020,05,30,07,23,108.50
2020,05,30,07,24,110.70
2020,05,30,07,25,112.80
2020,05,30,07,26,113.00
2020,05,30,07,27,113.30
2020,05,30,07,28,114.00
2020,05,30,07,29,114.00
2020,05,30,07,30,113.40
2020,05,30,07,31,111.60
2020,05,30,07,32,109.40
2020,05,30,07,33,109.00
2020,05,30,07,34,109.00
2020,05,30,07,35,110.20
2020,05,30,07,36,115.30
2020,05,30,07,37,119.20
2020,05,30,07,38,122.10
2020,05,30,07,39,123.00
2020,05,30,07,40,123.00
2020,05,30,07,41,123.00
2020,05,30,07,42,122.90
2020,05,30,07,43,119.70
2020,05,30,07,44,117.50
2020,05,30,07,45,116.00
2020,05,30,07,46,116.00
2020,05,30,07,47,116.00
2020,05,30,07,48,117.30
2020,05,30,07,49,118.00
2020,05,30,07,50,118.00
2020,05,30,07,51,120.00
2020,05,30,07,52,120.20
2020,05,30,07,53,121.60
2020,05,30,07,54,124.60
2020,05,30,07,55,127.50
2020,05,30,07,56,129.10
2020,05,30,07,57,131.40
2020,05,30,07,58,132.00
2020,05,30,07,59,133.90
2020,05,30,08,00,135.30
2020,05,30,08,01,138.00
2020,05,30,08,02,141.90
2020,05,30,08,03,145.60
2020,05,30,08,04,149.70
2020,05,30,08,05,151.00
2020,05,30,08,06,151.00
2020,05,30,08,07,148.50
2020,05,30,08,08,142.20
2020,05,30,08,09,141.00
2020,05,30,08,10,141.90
2020,05,30,08,11,145.50
2020,05,30,08,12,150.50
2020,05,30,08,13,154.70
2020,05,30,08,14,160.20
2020,05,30,08,15,164.30
2020,05,30,08,16,168.60
2020,05,30,08,17,171.00
2020,05,30,08,18,171.20
2020,05,30,08,19,172.60
2020,05,30,08,20,174.80
2020,05,30,08,21,175.00
2020,05,30,08,22,172.80
2020,05,30,08,23,171.30
2020,05,30,08,24,167.80
2020,05,30,08,25,162.10
2020,05,30,08,26,157.60
2020,05,30,08,27,154.00
2020,05,30,08,28,150.20
2020,05,30,08,29,148.50
2020,05,30,08,30,146.90
2020,05,30,08,31,144.70
2020,05,30,08,32,141.70
2020,05,30,08,33,135.80
2020,05,30,08,34,127.60
2020,05,30,08,35,118.30
2020,05,30,08,36,109.00
2020,05,30,08,37,104.00
2020,05,30,08,38,101.90
2020,05,30,08,39,102.20
2020,05,30,08,40,106.00
2020,05,30,08,41,111.90
2020,05,30,08,42,115.80
2020,05,30,08,43,118.00
2020,05,30,08,44,117.60
2020,05,30,08,45,116.00
2020,05,30,08,46,116.00
2020,05,30,08,47,117.10
2020,05,30,08,48,119.30
2020,05,30,08,49,118.50
2020,05,30,08,50,116.30
2020,05,30,08,51,110.90
2020,05,30,08,52,102.90
2020,05,30,08,53,96.60
2020,05,30,08,54,93.00
2020,05,30,08,55,93.00
2020,05,30,08,56,95.20
2020,05,30,08,57,97.00
2020,05,30,08,58,95.40
2020,05,30,08,59,91.40
2020,05,30,09,00,91.40
2020,05,30,09,01,95.70
2020,05,30,09,02,99.80
2020,05,30,09,03,106.10
2020,05,30,09,04,111.20
2020,05,30,09,05,113.60
2020,05,30,09,06,115.50
2020,05,30,09,07,117.60
2020,05,30,09,08,116.10
2020,05,30,09,09,115.70
2020,05,30,09,10,113.30
2020,05,30,09,11,110.30
2020,05,30,09,12,108.10
2020,05,30,09,13,107.00
2020,05,30,09,14,107.00
2020,05,30,09,15,108.50
2020,05,30,09,16,109.00
2020,05,30,09,17,106.90
2020,05,30,09,18,104.80
2020,05,30,09,19,103.40
2020,05,30,09,20,101.20
2020,05,30,09,21,99.00
2020,05,30,09,22,98.00
2020,05,30,09,23,98.00
2020,05,30,09,24,98.00
2020,05,30,09,25,97.10
2020,05,30,09,26,94.70
2020,05,30,09,27,92.50
2020,05,30,09,28,90.60
2020,05,30,09,29,90.00
2020,05,30,09,30,90.00
2020,05,30,09,31,90.00
2020,05,30,09,32,90.80
2020,05,30,09,33,92.70
2020,05,30,09,34,94.90
2020,05,30,09,35,94.60
2020,05,30,09,36,93.00
2020,05,30,09,37,92.30
2020,05,30,09,38,91.00
2020,05,30,09,39,91.00
2020,05,30,09,40,91.00
2020,05,30,09,41,90.20
2020,05,30,09,42,90.00
2020,05,30,09,43,91.00
2020,05,30,09,44,91.50
2020,05,30,09,45,93.00
2020,05,30,09,46,94.70
2020,05,30,09,47,97.50
2020,05,30,09,48,99.20
2020,05,30,09,49,100.00
2020,05,30,09,50,100.00
2020,05,30,09,51,97.00
2020,05,30,09,52,94.50
2020,05,30,09,53,90.80
2020,05,30,09,54,89.40
2020,05,30,09,55,87.00
2020,05,30,09,56,86.00
2020,05,30,09,57,86.00
2020,05,30,09,58,86.00
2020,05,30,09,59,84.30
2020,05,30,10,00,81.00
2020,05,30,10,01,78.60
2020,05,30,10,02,77.00
2020,05,30,10,03,77.00
2020,05,30,10,04,77.00
2020,05,30,10,05,77.00
2020,05,30,10,06,77.00
2020,05,30,10,07,76.20
2020,05,30,10,08,75.90
2020,05,30,10,09,74.00
2020,05,30,10,10,73.50
2020,05,30,10,11,72.00
2020,05,30,10,12,72.00
2020,05,30,10,13,72.00
2020,05,30,10,14,73.30
2020,05,30,10,15,75.50
2020,05,30,10,16,76.00
2020,05,30,10,17,76.00
2020,05,30,10,18,75.70
2020,05,30,10,19,73.40
2020,05,30,10,20,72.00
2020,05,30,10,21,71.00
2020,05,30,10,22,70.00
2020,05,30,10,23,70.00
2020,05,30,10,24,70.00
2020,05,30,10,25,70.00
2020,05,30,10,26,72.20
2020,05,30,10,27,74.40
2020,05,30,10,28,76.30
2020,05,30,10,29,77.80
2020,05,30,10,30,80.10
2020,05,30,10,31,81.00
2020,05,30,10,32,82.40
2020,05,30,10,33,83.00
2020,05,30,10,34,84.00
2020,05,30,10,35,86.30
2020,05,30,10,36,88.60
2020,05,30,10,37,90.30
2020,05,30,10,38,92.00
2020,05,30,10,39,94.10
2020,05,30,10,40,98.30
2020,05,30,10,41,105.30
2020,05,30,10,42,116.40
2020,05,30,10,43,128.60
2020,05,30,10,44,140.90
2020,05,30,10,45,153.20
2020,05,30,10,46,167.50
2020,05,30,10,47,178.50
2020,05,30,10,48,185.90
2020,05,30,10,49,191.40
2020,05,30,10,50,197.90
2020,05,30,10,51,205.80
2020,05,30,10,52,217.60
2020,05,30,10,53,229.10
2020,05,30,10,54,238.40
2020,05,30,10,55,243.50
2020,05,30,10,56,245.10
2020,05,30,10,57,248.70
2020,05,30,10,58,250.00
2020,05,30,10,59,248.30
2020,05,30,11,00,250.00
2020,05,30,11,01,253.00
2020,05,30,11,02,256.30
2020,05,30,11,03,268.40
2020,05,30,11,04,278.10
2020,05,30,11,05,290.40
2020,05,30,11,06,302.70
2020,05,30,11,07,309.80
2020,05,30,11,08,321.90
2020,05,30,11,09,339.20
2020,05,30,11,10,339.40
2020,05,30,11,11,334.70
2020,05,30,11,12,337.30
2020,05,30,11,13,339.00
2020,05,30,11,14,383.60
2020,05,30,11,15,403.70
2020,05,30,11,16,395.00
2020,05,30,11,17,392.50
2020,05,30,11,18,356.00
2020,05,30,11,19,329.50
2020,05,30,11,20,322.40
2020,05,30,11,21,319.40
2020,05,30,11,22,307.90
2020,05,30,11,23,292.90
2020,05,30,11,24,277.30
2020,05,30,11,25,260.30
2020,05,30,11,26,248.30
2020,05,30,11,27,244.40
2020,05,30,11,28,247.40
2020,05,30,11,29,254.70
2020,05,30,11,30,264.30
2020,05,30,11,31,270.20
2020,05,30,11,32,266.20
2020,05,30,11,33,253.70
2020,05,30,11,34,237.40
2020,05,30,11,35,218.80
2020,05,30,11,36,205.70
2020,05,30,11,37,200.00
2020,05,30,11,38,202.70
2020,05,30,11,39,210.20
2020,05,30,11,40,221.10
2020,05,30,11,41,228.60
2020,05,30,11,42,233.40
2020,05,30,11,43,239.20
2020,05,30,11,44,249.40
2020,05,30,11,45,257.80
2020,05,30,11,46,260.80
2020,05,30,11,47,263.00
2020,05,30,11,48,268.50
2020,05,30,11,49,283.40
2020,05,30,11,50,305.50
2020,05,30,11,51,328.10
2020,05,30,11,52,349.50
2020,05,30,11,53,368.80
2020,05,30,11,54,393.30
2020,05,30,11,55,439.10
2020,05,30,11,56,476.40
2020,05,30,11,57,506.20
2020,05,30,11,58,563.60
2020,05,30,11,59,535.30
2020,05,30,12,00,448.30
2020,05,30,12,01,354.70
2020,05,30,12,02,323.00
2020,05,30,12,03,309.30
2020,05,30,12,04,284.40
2020,05,30,12,05,281.00
2020,05,30,12,06,277.60
2020,05,30,12,07,272.00
2020,05,30,12,08,265.90
2020,05,30,12,09,259.50
2020,05,30,12,10,254.20
2020,05,30,12,11,251.60
2020,05,30,12,12,253.80
2020,05,30,12,13,254.00
2020,05,30,12,14,250.10
2020,05,30,12,15,242.00
2020,05,30,12,16,230.90
2020,05,30,12,17,218.50
2020,05,30,12,18,206.00
2020,05,30,12,19,199.80
2020,05,30,12,20,199.00
2020,05,30,12,21,198.20
2020,05,30,12,22,197.00
2020,05,30,12,23,198.90
2020,05,30,12,24,205.40
2020,05,30,12,25,214.70
2020,05,30,12,26,222.90
2020,05,30,12,27,224.40
2020,05,30,12,28,219.80
2020,05,30,12,29,216.00
2020,05,30,12,30,217.00
2020,05,30,12,31,222.10
2020,05,30,12,32,232.70
2020,05,30,12,33,245.60
2020,05,30,12,34,260.70
2020,05,30,12,35,273.50
2020,05,30,12,36,291.00
2020,05,30,12,37,309.70
2020,05,30,12,38,319.70
2020,05,30,12,39,308.00
2020,05,30,12,40,301.00
2020,05,30,12,41,315.20
2020,05,30,12,42,347.20
2020,05,30,12,43,365.00
2020,05,30,12,44,356.10
2020,05,30,12,45,335.20
2020,05,30,12,46,325.00
2020,05,30,12,47,336.20
2020,05,30,12,48,350.00
2020,05,30,12,49,351.20
2020,05,30,12,50,341.30
2020,05,30,12,51,328.60
2020,05,30,12,52,320.20
2020,05,30,12,53,322.20
2020,05,30,12,54,324.70
2020,05,30,12,55,336.30
2020,05,30,12,56,363.60
2020,05,30,12,57,397.20
2020,05,30,12,58,395.30
2020,05,30,12,59,370.60
2020,05,30,13,00,353.30
2020,05,30,13,01,333.90
2020,05,30,13,02,308.50
2020,05,30,13,03,281.00
2020,05,30,13,04,251.90
2020,05,30,13,05,203.00
2020,05,30,13,06,184.30
2020,05,30,13,07,172.90
2020,05,30,13,08,164.20
2020,05,30,13,09,162.10
2020,05,30,13,10,163.60
2020,05,30,13,11,167.00
2020,05,30,13,12,167.00
2020,05,30,13,13,167.00
2020,05,30,13,14,169.90
2020,05,30,13,15,178.00
2020,05,30,13,16,189.50
2020,05,30,13,17,198.00
2020,05,30,13,18,204.00
2020,05,30,13,19,204.00
2020,05,30,13,20,203.40
2020,05,30,13,21,200.80
2020,05,30,13,22,197.00
2020,05,30,13,23,191.70
2020,05,30,13,24,186.40
2020,05,30,13,25,181.60
2020,05,30,13,26,178.30
2020,05,30,13,27,179.60
2020,05,30,13,28,184.20
2020,05,30,13,29,189.30
2020,05,30,13,30,192.00
2020,05,30,13,31,190.90
2020,05,30,13,32,190.00
2020,05,30,13,33,192.30
2020,05,30,13,34,193.00
2020,05,30,13,35,214.50
2020,05,30,13,36,234.20
2020,05,30,13,37,258.70
2020,05,30,13,38,288.60
2020,05,30,13,39,311.30
2020,05,30,13,40,316.80
2020,05,30,13,41,304.70
2020,05,30,13,42,283.00
2020,05,30,13,43,259.30
2020,05,30,13,44,241.70
2020,05,30,13,45,228.70
2020,05,30,13,46,222.30
2020,05,30,13,47,219.00
2020,05,30,13,48,209.70
2020,05,30,13,49,192.90
2020,05,30,13,50,175.30
2020,05,30,13,51,163.50
2020,05,30,13,52,161.00
2020,05,30,13,53,137.00
2020,05,30,13,54,126.60
2020,05,30,13,55,123.00
2020,05,30,13,56,123.00
2020,05,30,13,57,126.80
2020,05,30,13,58,131.30
2020,05,30,13,59,132.00
2020,05,30,14,00,133.80
2020,05,30,14,01,134.10
2020,05,30,14,02,135.00
2020,05,30,14,03,135.60
2020,05,30,14,04,137.00
2020,05,30,14,05,137.00
2020,05,30,14,06,138.30
2020,05,30,14,07,137.50
2020,05,30,14,08,137.00
2020,05,30,14,09,135.20
2020,05,30,14,10,137.30
2020,05,30,14,11,140.20
2020,05,30,14,12,146.40
2020,05,30,14,13,154.00
2020,05,30,14,14,162.70
2020,05,30,14,15,169.60
2020,05,30,14,16,171.80
2020,05,30,14,17,166.00
2020,05,30,14,18,151.90
2020,05,30,14,19,142.00
2020,05,30,14,20,136.90
2020,05,30,14,21,122.20
2020,05,30,14,22,115.50
2020,05,30,14,23,110.50
2020,05,30,14,24,105.60
2020,05,30,14,25,102.40
2020,05,30,14,26,102.00
2020,05,30,14,27,104.40
2020,05,30,14,28,107.50
2020,05,30,14,29,109.00
2020,05,30,14,30,109.00
2020,05,30,14,31,109.00
2020,05,30,14,32,109.00
2020,05,30,14,33,111.90
2020,05,30,14,34,115.60
2020,05,30,14,35,120.00
2020,05,30,14,36,123.30
2020,05,30,14,37,125.00
2020,05,30,14,38,126.20
2020,05,30,14,39,130.70
2020,05,30,14,40,135.80
2020,05,30,14,41,137.00
2020,05,30,14,42,133.10
2020,05,30,14,43,123.90
2020,05,30,14,44,113.10
2020,05,30,14,45,103.90
2020,05,30,14,46,100.00
2020,05,30,14,47,101.60
2020,05,30,14,48,109.00
2020,05,30,14,49,120.80
2020,05,30,14,50,134.80
2020,05,30,14,51,148.70
2020,05,30,14,52,163.10
2020,05,30,14,53,179.90
2020,05,30,14,54,195.80
2020,05,30,14,55,213.50
2020,05,30,14,56,231.30
2020,05,30,14,57,242.70
2020,05,30,14,58,253.80
2020,05,30,14,59,266.40
2020,05,30,15,00,282.70
2020,05,30,15,01,303.30
2020,05,30,15,02,308.00
2020,05,30,15,03,308.00
2020,05,30,15,04,310.90
2020,05,30,15,05,315.00
2020,05,30,15,06,272.40
2020,05,30,15,07,220.40
2020,05,30,15,08,190.00
2020,05,30,15,09,165.10
2020,05,30,15,10,150.00
2020,05,30,15,11,144.00
2020,05,30,15,12,144.00
2020,05,30,15,13,143.10
2020,05,30,15,14,140.50
2020,05,30,15,15,136.30
2020,05,30,15,16,132.70
2020,05,30,15,17,132.00
2020,05,30,15,18,134.00
2020,05,30,15,19,135.00
2020,05,30,15,20,134.20
2020,05,30,15,21,130.70
2020,05,30,15,22,127.50
2020,05,30,15,23,127.00
2020,05,30,15,24,127.70
2020,05,30,15,25,128.00
2020,05,30,15,26,128.00
2020,05,30,15,27,130.40
2020,05,30,15,28,135.70
2020,05,30,15,29,142.40
2020,05,30,15,30,147.10
2020,05,30,15,31,149.00
2020,05,30,15,32,148.40
2020,05,30,15,33,148.00
2020,05,30,15,34,148.90
2020,05,30,15,35,155.10
2020,05,30,15,36,163.00
2020,05,30,15,37,169.80
2020,05,30,15,38,170.90
2020,05,30,15,39,165.10
2020,05,30,15,40,153.10
2020,05,30,15,41,140.10
2020,05,30,15,42,130.20
2020,05,30,15,43,125.40
2020,05,30,15,44,123.20
2020,05,30,15,45,125.00
2020,05,30,15,46,124.40
2020,05,30,15,47,123.00
2020,05,30,15,48,123.00
2020,05,30,15,49,124.20
2020,05,30,15,50,127.00
2020,05,30,15,51,128.00
2020,05,30,15,52,136.10
2020,05,30,15,53,142.90
2020,05,30,15,54,148.20
2020,05,30,15,55,148.60
2020,05,30,15,56,145.60
2020,05,30,15,57,137.40
2020,05,30,15,58,128.40
2020,05,30,15,59,118.60
2020,05,30,16,00,113.50
2020,05,30,16,01,111.10
2020,05,30,16,02,111.60
2020,05,30,16,03,115.70
2020,05,30,16,04,121.70
2020,05,30,16,05,126.40
2020,05,30,16,06,130.40
2020,05,30,16,07,133.40
2020,05,30,16,08,134.00
2020,05,30,16,09,134.00
2020,05,30,16,10,137.50
2020,05,30,16,11,143.10
2020,05,30,16,12,149.00
2020,05,30,16,13,151.00
2020,05,30,16,14,148.40
2020,05,30,16,15,142.90
2020,05,30,16,16,135.80
2020,05,30,16,17,128.90
2020,05,30,16,18,120.40
2020,05,30,16,19,112.10
2020,05,30,16,20,105.80
2020,05,30,16,21,100.40
2020,05,30,16,22,95.30
2020,05,30,16,23,93.00
2020,05,30,16,24,93.00
2020,05,30,16,25,94.50
2020,05,30,16,26,96.70
2020,05,30,16,27,98.10
2020,05,30,16,28,99.60
2020,05,30,16,29,98.60
2020,05,30,16,30,100.00
2020,05,30,16,31,100.00
2020,05,30,16,32,100.00
2020,05,30,16,33,100.00
2020,05,30,16,34,98.40
2020,05,30,16,35,95.00
2020,05,30,16,36,89.10
2020,05,30,16,37,83.80
2020,05,30,16,38,83.30
2020,05,30,16,39,86.60
2020,05,30,16,40,94.40
2020,05,30,16,41,102.60
2020,05,30,16,42,107.90
2020,05,30,16,43,110.70
2020,05,30,16,44,111.20
2020,05,30,16,45,113.00
2020,05,30,16,46,112.50
2020,05,30,16,47,110.30
2020,05,30,16,48,108.00
2020,05,30,16,49,105.80
2020,05,30,16,50,104.30
2020,05,30,16,51,102.50
2020,05,30,16,52,100.30
2020,05,30,16,53,100.20
2020,05,30,16,54,102.70
2020,05,30,16,55,106.30
2020,05,30,16,56,109.80
2020,05,30,16,57,110.00
2020,05,30,16,58,106.60
2020,05,30,16,59,101.40
2020,05,30,17,00,95.80
2020,05,30,17,01,90.50
2020,05,30,17,02,85.60
2020,05,30,17,03,82.10
2020,05,30,17,04,78.30
2020,05,30,17,05,76.50
2020,05,30,17,06,74.90
2020,05,30,17,07,74.00
2020,05,30,17,08,74.00
2020,05,30,17,09,74.00
2020,05,30,17,10,72.10
2020,05,30,17,11,71.40
2020,05,30,17,12,68.40
2020,05,30,17,13,67.00